Previsão horária em Aberfeldy

Hoje, 13 Abril, Terça-feira

Tempo Temperatura Precipitação Vento Pressão Humidade
00:00 -1°C° 0 mm 1 m/s 745 mmHg 64%
01:00 -1°C° 0 mm 1 m/s 745 mmHg 64%
02:00 -1°C° 0 mm 1 m/s 745 mmHg 65%
03:00 -2°C° 0 mm 0 m/s 745 mmHg 66%
04:00 -2°C° 0 mm 0 m/s 745 mmHg 65%
05:00 0°C° 0 mm 1 m/s 745 mmHg 64%
06:00 0°C° 0 mm 1 m/s 745 mmHg 63%
07:00 +1°C° 0 mm 0 m/s 745 mmHg 57%
08:00 +3°C° 0 mm 0 m/s 745 mmHg 51%
09:00 +4°C° 0 mm 0 m/s 746 mmHg 45%
10:00 +5°C° 0 mm 0 m/s 746 mmHg 44%
11:00 +8°C° 0 mm 1 m/s 746 mmHg 42%
12:00 +9°C° 0 mm 1 m/s 746 mmHg 41%
13:00 +9°C° 0 mm 1 m/s 745 mmHg 42%
14:00 +9°C° 0 mm 1 m/s 745 mmHg 44%
15:00 +8°C° 0 mm 2 m/s 745 mmHg 45%
16:00 +9°C° 0 mm 1 m/s 745 mmHg 51%
17:00 +8°C° 0 mm 1 m/s 745 mmHg 56%
18:00 +7°C° 0 mm 1 m/s 745 mmHg 62%
19:00 +6°C° 0 mm 1 m/s 746 mmHg 68%
20:00 +4°C° 0 mm 1 m/s 746 mmHg 74%
21:00 +2°C° 0 mm 1 m/s 746 mmHg 79%
22:00 +2°C° 0 mm 1 m/s 746 mmHg 81%
23:00 +1°C° 0 mm 0 m/s 747 mmHg 82%

Amanhã, 14 Abril, Quarta-feira

Tempo Temperatura Precipitação Vento Pressão Humidade
00:00 0°C° 0 mm 0 m/s 747 mmHg 84%
01:00 0°C° 0 mm 0 m/s 747 mmHg 84%
02:00 0°C° 0 mm 0 m/s 747 mmHg 84%
03:00 0°C° 0 mm 0 m/s 747 mmHg 85%
04:00 0°C° 0 mm 0 m/s 747 mmHg 83%
05:00 0°C° 0 mm 0 m/s 747 mmHg 82%
06:00 0°C° 0 mm 0 m/s 747 mmHg 80%
07:00 +2°C° 0 mm 0 m/s 747 mmHg 73%
08:00 +4°C° 0 mm 0 m/s 747 mmHg 67%
09:00 +6°C° 0 mm 0 m/s 748 mmHg 60%
10:00 +7°C° 0 mm 0 m/s 747 mmHg 56%
11:00 +10°C° 0 mm 1 m/s 747 mmHg 53%
12:00 +11°C° 0 mm 1 m/s 747 mmHg 50%
13:00 +11°C° 0 mm 1 m/s 747 mmHg 50%
14:00 +11°C° 0 mm 1 m/s 747 mmHg 50%
15:00 +11°C° 0 mm 1 m/s 747 mmHg 50%
16:00 +10°C° 0.1 mm 1 m/s 747 mmHg 55%
17:00 +10°C° 0.1 mm 1 m/s 747 mmHg 61%
18:00 +9°C° 0.1 mm 1 m/s 747 mmHg 67%
19:00 +7°C° 0.1 mm 1 m/s 747 mmHg 72%
20:00 +6°C° 0.1 mm 1 m/s 748 mmHg 78%
21:00 +4°C° 0.1 mm 1 m/s 748 mmHg 84%
22:00 +4°C° 0 mm 1 m/s 748 mmHg 84%
23:00 +4°C° 0 mm 1 m/s 748 mmHg 85%

Depois de amanhã, 15 Abril, Quinta-feira

Tempo Temperatura Precipitação Vento Pressão Humidade
00:00 +2°C° 0 mm 0 m/s 748 mmHg 85%
01:00 +2°C° 0 mm 0 m/s 748 mmHg 85%
02:00 +2°C° 0 mm 0 m/s 748 mmHg 85%
03:00 +1°C° 0 mm 0 m/s 748 mmHg 85%
04:00 +1°C° 0 mm 0 m/s 748 mmHg 85%
05:00 +2°C° 0 mm 0 m/s 748 mmHg 84%
06:00 +2°C° 0 mm 0 m/s 748 mmHg 83%
07:00 +3°C° 0 mm 0 m/s 748 mmHg 77%
08:00 +6°C° 0 mm 1 m/s 748 mmHg 70%
09:00 +8°C° 0 mm 1 m/s 748 mmHg 64%
10:00 +9°C° 0 mm 1 m/s 748 mmHg 60%
11:00 +9°C° 0 mm 2 m/s 748 mmHg 57%
12:00 +10°C° 0 mm 2 m/s 747 mmHg 54%
13:00 +10°C° 0 mm 2 m/s 747 mmHg 53%
14:00 +10°C° 0 mm 2 m/s 747 mmHg 53%
15:00 +10°C° 0 mm 3 m/s 747 mmHg 53%
16:00 +9°C° 0 mm 3 m/s 747 mmHg 58%
17:00 +8°C° 0 mm 3 m/s 747 mmHg 62%
18:00 +7°C° 0 mm 3 m/s 746 mmHg 67%
19:00 +6°C° 0 mm 2 m/s 747 mmHg 74%
20:00 +4°C° 0 mm 2 m/s 747 mmHg 80%
21:00 +3°C° 0 mm 1 m/s 747 mmHg 87%
22:00 +3°C° 0 mm 1 m/s 747 mmHg 88%
23:00 +2°C° 0 mm 1 m/s 747 mmHg 89%

16 Abril, Sexta-feira

Tempo Temperatura Precipitação Vento Pressão Humidade
00:00 +2°C° 0 mm 1 m/s 747 mmHg 90%
01:00 +2°C° 0 mm 1 m/s 747 mmHg 90%
02:00 +1°C° 0 mm 1 m/s 747 mmHg 90%
03:00 +1°C° 0 mm 1 m/s 747 mmHg 91%
04:00 +1°C° 0 mm 1 m/s 747 mmHg 89%
05:00 +1°C° 0 mm 1 m/s 747 mmHg 88%
06:00 +2°C° 0 mm 1 m/s 747 mmHg 87%
07:00 +3°C° 0 mm 1 m/s 747 mmHg 79%
08:00 +5°C° 0 mm 1 m/s 747 mmHg 72%
09:00 +6°C° 0 mm 2 m/s 746 mmHg 64%
10:00 +7°C° 0 mm 2 m/s 746 mmHg 59%
11:00 +8°C° 0 mm 2 m/s 746 mmHg 55%
12:00 +9°C° 0 mm 3 m/s 746 mmHg 51%
13:00 +9°C° 0 mm 3 m/s 746 mmHg 50%
14:00 +10°C° 0 mm 3 m/s 745 mmHg 49%
15:00 +10°C° 0 mm 3 m/s 745 mmHg 48%
16:00 +9°C° 0 mm 3 m/s 745 mmHg 53%
17:00 +8°C° 0 mm 3 m/s 745 mmHg 59%
18:00 +7°C° 0 mm 2 m/s 745 mmHg 64%
19:00 +6°C° 0 mm 2 m/s 745 mmHg 72%
20:00 +4°C° 0 mm 2 m/s 745 mmHg 79%
21:00 +4°C° 0 mm 1 m/s 745 mmHg 86%
22:00 +3°C° 0 mm 1 m/s 745 mmHg 87%
23:00 +3°C° 0 mm 1 m/s 745 mmHg 89%

17 Abril, Sábado

Tempo Temperatura Precipitação Vento Pressão Humidade
00:00 +2°C° 0 mm 1 m/s 745 mmHg 90%
01:00 +2°C° 0 mm 1 m/s 745 mmHg 91%
02:00 +2°C° 0 mm 1 m/s 744 mmHg 91%
03:00 +1°C° 0 mm 1 m/s 744 mmHg 92%
04:00 +1°C° 0 mm 1 m/s 744 mmHg 91%
05:00 +2°C° 0 mm 1 m/s 744 mmHg 89%
06:00 +2°C° 0 mm 1 m/s 744 mmHg 87%
07:00 +3°C° 0 mm 1 m/s 743 mmHg 78%
08:00 +4°C° 0 mm 2 m/s 743 mmHg 69%
09:00 +5°C° 0 mm 2 m/s 743 mmHg 60%
10:00 +5°C° 0 mm 3 m/s 742 mmHg 59%
11:00 +6°C° 0 mm 4 m/s 742 mmHg 57%
12:00 +7°C° 0 mm 5 m/s 741 mmHg 55%
13:00 +7°C° 0 mm 5 m/s 741 mmHg 55%
14:00 +7°C° 0 mm 6 m/s 741 mmHg 55%
15:00 +8°C° 0 mm 6 m/s 740 mmHg 55%
16:00 +7°C° 0 mm 6 m/s 740 mmHg 60%
17:00 +6°C° 0 mm 5 m/s 740 mmHg 65%
18:00 +5°C° 0 mm 5 m/s 740 mmHg 70%
19:00 +4°C° 0.3 mm 4 m/s 740 mmHg 78%
20:00 +3°C° 0.3 mm 4 m/s 740 mmHg 86%
21:00 +2°C° 0.3 mm 3 m/s 739 mmHg 94%
22:00 +2°C° 0.8 mm 3 m/s 739 mmHg 95%
23:00 +2°C° 0.8 mm 3 m/s 739 mmHg 97%

18 Abril, Domingo

Tempo Temperatura Precipitação Vento Pressão Humidade
00:00 +2°C° 0.8 mm 3 m/s 739 mmHg 98%
01:00 +3°C° 0.5 mm 2 m/s 738 mmHg 98%
02:00 +3°C° 0.5 mm 2 m/s 738 mmHg 98%
03:00 +3°C° 0.5 mm 2 m/s 738 mmHg 98%
04:00 +3°C° 0.1 mm 2 m/s 738 mmHg 98%
05:00 +4°C° 0.1 mm 2 m/s 738 mmHg 98%
06:00 +4°C° 0.1 mm 2 m/s 738 mmHg 98%
07:00 +4°C° 0.1 mm 2 m/s 738 mmHg 98%
08:00 +4°C° 0.1 mm 2 m/s 738 mmHg 98%
09:00 +4°C° 0.1 mm 2 m/s 738 mmHg 97%
10:00 +5°C° 0 mm 2 m/s 738 mmHg 97%
11:00 +5°C° 0 mm 2 m/s 738 mmHg 96%
12:00 +5°C° 0 mm 2 m/s 738 mmHg 96%
13:00 +5°C° 0 mm 2 m/s 737 mmHg 96%
14:00 +5°C° 0 mm 2 m/s 737 mmHg 97%
15:00 +6°C° 0 mm 2 m/s 737 mmHg 97%
16:00 +5°C° 0.1 mm 2 m/s 737 mmHg 97%
17:00 +5°C° 0.1 mm 2 m/s 737 mmHg 97%
18:00 +5°C° 0.1 mm 2 m/s 736 mmHg 98%
19:00 +5°C° 0 mm 2 m/s 736 mmHg 98%
20:00 +5°C° 0 mm 2 m/s 736 mmHg 98%
21:00 +5°C° 0 mm 2 m/s 735 mmHg 98%
22:00 +5°C° 0.7 mm 2 m/s 735 mmHg 98%
23:00 +5°C° 0.7 mm 2 m/s 734 mmHg 98%
Mostrar mais

Necessitamos do seu Consentimento

A Meteoprog e os seus Fornecedores de Serviços podem armazenar e aceder a dados pessoais como cookies, identificadores do dispositivo ou outras tecnologias semelhantes existentes no seu dispositivo e processar estes dados para personalizar conteúdos e anúncios, assim como funcionalidades nas redes sociais e análise de tráfego.

  • Armazenar e/ou aceder a informações no seu dispositivo

    Os cookies, identificadores do dispositivo ou outras informações podem ser armazenados ou acedidos no seu dispositivo, para os fins acima indicados.

  • Anúncios e conteúdos personalizados, medição de anúncios e conteúdos, dados sobre o público-alvo e desenvolvimento de produtos

    Os anúncios e os conteúdos podem ser personalizados com base num perfil. Podem ser adicionados dados adicionais para uma maior personalização dos anúncios e dos conteúdos. A eficácia dos anúncios e dos conteúdos pode ser medida. Podem ser obtidas informações sobre o público que visualizou os anúncios e os conteúdos. Estes dados podem ser usados para desenvolver ou melhorar sistemas, softwares ou a experiência do utilizador.

Ao clicar em "Eu concordo”, permitirá o uso de cookies, identificadores do dispositivo e web beacons mencionados ou outras tecnologias semelhantes. As configurações do navegador do seu dispositivo podem ser alteradas.

Para certos fins, podem ser invocados interesses legítimos ao invés de consentimento. Pode ler mais informação sobre este assunto na nossa Política de Privacidade e Cookies.